Weather History for Page, AZ

Change the Weather History Date:

Friday, December 9, 2011

  Actual Average Record
Temperature  
Mean Temperature 35 °F -  
Max Temperature 43 °F 45 °F 65 °F (1977)
Min Temperature 27 °F 26 °F 3 °F (1978)
Degree Days  
Heating Degree Days 30    
Moisture  
Dew Point 22 °F    
Average Humidity 61    
Maximum Humidity 72    
Minimum Humidity 45    
Precipitation  
Precipitation 0.00 in - - ()
Sea Level Pressure  
Sea Level Pressure 30.33 in    
Wind  
Wind Speed 2 mph (SW)    
Max Wind Speed 5 mph    
Max Gust Speed -    
Visibility 9 miles    
Events      
Averages and records for this station are not official NWS values.
T = Trace of Precipitation, MM = Missing Value Source: NWS Daily Summary

Daily Weather History Graph

Daily Weather History Graph

Search for Another Location

Airport:

Trip Planner

Search our weather history database for the weather conditions in past years. The results will help you decide how hot, cold, wet, or windy it might be!

Date:

Astronomy

Dec. 09, 2011 Rise Set
Actual Time 7:27 AM MST 5:09 PM MST
Civil Twilight 6:58 AM MST 5:37 PM MST
Nautical Twilight 6:25 AM MST 6:10 PM MST
Astronomical Twilight 5:54 AM MST 6:41 PM MST
Moon 4:35 PM MST (12/9) 6:37 AM MST (12/9)
Length of Visible Light 10h 39m
Length of Day
9h 42m
Waxing Gibbous, 99% of the Moon is Illuminated
Dec 9
Waxing Gibbous
Dec 10
Full
Dec 17
Last Quarter
Dec 24
New
Dec 31
First Quarter

Hourly Weather History & Observations

Time (MST) Temp. Windchill Dew Point Humidity Pressure Visibility Wind Dir Wind Speed Gust Speed Precip Events Conditions
12:53 AM 30.9 °F - 19.9 °F 64% 30.27 in 10.0 mi Calm Calm - N/A   Clear
1:53 AM 30.9 °F 26.2 °F 19.9 °F 64% 30.27 in 8.0 mi SW 4.6 mph - N/A   Clear
2:53 AM 30.9 °F 27.5 °F 19.9 °F 64% 30.26 in 10.0 mi SSW 3.5 mph - N/A   Clear
3:53 AM 28.0 °F - 19.0 °F 69% 30.27 in 10.0 mi Calm Calm - N/A   Clear
4:53 AM 27.0 °F - 19.0 °F 72% 30.29 in 4.0 mi Calm Calm - N/A   Haze
5:53 AM 28.4 °F 23.3 °F 19.4 °F 69% 30.26 in 10.0 mi SW 4.6 mph - N/A   Clear
6:53 AM 28.0 °F 24.2 °F 18.0 °F 66% 30.32 in 10.0 mi SW 3.5 mph - N/A   Clear
7:53 AM 28.0 °F 24.2 °F 19.0 °F 69% 30.35 in 10.0 mi SW 3.5 mph - N/A   Clear
8:53 AM 32.0 °F - 21.0 °F 64% 30.38 in 10.0 mi Calm Calm - N/A   Clear
9:53 AM 34.0 °F - 19.9 °F 56% 30.38 in 10.0 mi Calm Calm - N/A   Clear
10:53 AM 36.0 °F 33.3 °F 21.9 °F 57% 30.39 in 10.0 mi WNW 3.5 mph - N/A   Clear
11:53 AM 37.9 °F - 23.0 °F 55% 30.37 in 10.0 mi Calm Calm - N/A   Clear
12:53 PM 41.0 °F - 23.0 °F 49% 30.34 in 10.0 mi Calm Calm - N/A   Clear
1:53 PM 42.8 °F 41.1 °F 24.8 °F 49% 30.29 in 10.0 mi Variable 3.5 mph - N/A   Clear
2:53 PM 42.8 °F 40.1 °F 23.0 °F 46% 30.29 in 10.0 mi NNE 4.6 mph - N/A   Clear
3:53 PM 43.0 °F 41.3 °F 23.0 °F 45% 30.31 in 10.0 mi ENE 3.5 mph - N/A   Clear
4:53 PM 41.0 °F - 24.1 °F 51% 30.32 in 10.0 mi Calm Calm - N/A   Clear
5:53 PM 39.0 °F 35.7 °F 24.1 °F 55% 30.33 in 10.0 mi South 4.6 mph - N/A   Clear
6:53 PM 37.0 °F - 24.1 °F 59% 30.35 in 10.0 mi Calm Calm - N/A   Clear
7:53 PM 36.0 °F - 23.0 °F 59% 30.37 in 10.0 mi Calm Calm - N/A   Clear
8:53 PM 34.0 °F - 24.1 °F 67% 30.37 in 6.0 mi Calm Calm - N/A   Haze
9:19 PM 33.8 °F 30.8 °F 23.0 °F 65% 30.34 in 1.8 mi SSW 3.5 mph - N/A   Haze
9:30 PM 33.8 °F 30.8 °F 24.8 °F 70% 30.34 in 3.0 mi SW 3.5 mph - N/A   Haze
9:53 PM 34.0 °F - 24.1 °F 67% 30.37 in 6.0 mi Calm Calm - N/A   Haze
10:53 PM 33.1 °F - 24.1 °F 70% 30.37 in 7.0 mi Calm Calm - N/A   Clear
11:53 PM 33.1 °F - 23.0 °F 66% 30.37 in 9.0 mi Calm Calm - N/A   Clear